Location: Aufkirchen
(47.9603°N, 11.3653°E)
Time: 12:13:03
(UTC+01:00)

deb Explorer IX - Pass Details

Date: 05 December 2020
Orbit: 536 x 1104 km, 38.8° (Epoch: 19 January)

Event Time Altitude Azimuth Distance (km) Brightness Sun altitude
Rises 18:41:49 0° 266° (W) 3,574 ? -22.4°
Reaches altitude 10° 18:45:18 10° 250° (WSW) 2,513 ? -23.0°
Maximum altitude 18:49:17 19° 208° (SSW) 1,833 ? -23.7°
Drops below altitude 10° 18:52:54 10° 164° (SSE) 2,233 ? -24.3°
Enters shadow 18:53:07 - 162° (SSE) 2,285 ? -24.3°
